Waarnemingen

Advertentie
Mijn weer
K14A, Nederland (6204): temperatuur & dauwpunt: 23.03.2017 21:00:00 - 29.03.2017 21:00:00 (CEST)K14A, Nederland (6204): windsnelheid & windstoten: 23.03.2017 21:00:00 - 29.03.2017 21:00:00 (CEST)K14A, Nederland (6204): windrichting: 23.03.2017 21:00:00 - 29.03.2017 21:00:00 (CEST)K14A, Nederland (6204): luchtdruk: 23.03.2017 21:00:00 - 29.03.2017 21:00:00 (CEST)K14A, Nederland (6204): zicht: 23.03.2017 21:00:00 - 29.03.2017 21:00:00 (CEST)
Datum & Tijd tt [°C] td [°C] ff [km/u] ff [kn] fx [km/u] fx [kn] dd ppp [hPa] vv [km]
29.03.2017 21:00:00 - - - - - - - - -
29.03.2017 20:00:00 9,8 8,6 44 24 43 23 ZZW 1021,0 10
29.03.2017 19:00:00 9,6 8,5 41 22 43 23 ZZW 1021,1 10
29.03.2017 18:00:00 9,5 8,4 44 24 43 23 ZZW 1020,7 10
29.03.2017 17:00:00 9,5 8,3 37 20 36 19 ZW 1020,9 10
29.03.2017 16:00:00 9,4 8,3 39 21 40 21 ZW 1020,9 10
29.03.2017 15:00:00 9,5 8,3 39 21 40 21 ZW 1021,1 10
29.03.2017 14:00:00 9,4 8,3 42 23 43 23 ZW 1021,1 10
29.03.2017 13:00:00 9,3 8,3 42 23 40 21 ZW 1020,8 10
29.03.2017 12:00:00 9,2 8,2 44 24 47 25 ZW 1020,8 10
29.03.2017 11:00:00 9,4 8,3 46 25 47 25 ZW 1020,4 10
29.03.2017 10:00:00 9,3 8,0 46 25 43 23 ZW 1019,7 10
29.03.2017 09:00:00 8,8 8,2 42 23 47 25 ZW 1019,2 7
29.03.2017 08:00:00 9,1 8,3 46 25 43 23 ZZW 1019,0 8
29.03.2017 07:00:00 9,0 8,7 44 24 43 23 ZW 1018,9 7
29.03.2017 06:00:00 8,8 8,5 52 28 54 29 ZW 1018,9 6
29.03.2017 05:00:00 9,3 7,8 54 29 54 29 ZW 1018,9 10
29.03.2017 04:00:00 9,3 7,7 50 27 50 27 ZW 1019,1 9
29.03.2017 03:00:00 9,3 7,5 44 24 43 23 ZW 1019,3 10
29.03.2017 02:00:00 9,6 7,2 48 26 47 25 WZW 1019,3 10
29.03.2017 01:00:00 10,2 7,3 46 25 47 25 WZW 1019,5 10
29.03.2017 00:00:00 8,9 7,8 35 19 36 19 WZW 1019,3 9
28.03.2017 23:00:00 8,7 8,1 29 16 32 18 WZW 1019,2 5
28.03.2017 22:00:00 8,1 8,1 28 15 32 18 WZW 1019,5 0,4
28.03.2017 21:00:00 7,3 7,3 35 19 36 19 ZZW 1019,1 0,5
28.03.2017 20:00:00 8,6 7,4 34 18 32 18 ZZW 1018,8 9
28.03.2017 19:00:00 8,1 6,7 21 11 25 14 Z 1019,0 10
28.03.2017 18:00:00 7,3 6,9 21 11 22 12 Z 1019,3 10
28.03.2017 17:00:00 6,1 6,0 9 5 14 8 ZZO 1019,6 10
28.03.2017 16:00:00 7,9 7,8 5 3 7 4 OZO 1019,7 1,5
28.03.2017 15:00:00 6,0 6,0 5 3 7 4 NO 1020,0 0,3
28.03.2017 14:00:00 5,7 5,7 4 2 7 4 - 1020,6 0,2
28.03.2017 13:00:00 6,3 6,2 9 5 11 6 NO 1020,4 0,2
28.03.2017 12:00:00 5,3 5,3 9 5 11 6 NNO 1020,3 0,1
28.03.2017 11:00:00 5,2 5,2 8 4 11 6 N 1020,3 0,1
28.03.2017 10:00:00 5,2 5,2 4 2 11 6 NNO 1020,1 0,1
28.03.2017 09:00:00 5,0 5,0 2 1 7 4 - 1020,0 0,1
28.03.2017 08:00:00 5,4 5,4 8 4 7 4 O 1019,8 0,2
28.03.2017 07:00:00 5,9 5,8 8 4 11 6 OZO 1020,4 0,7
28.03.2017 06:00:00 6,2 6,2 11 6 18 10 ONO 1020,4 0,2
28.03.2017 05:00:00 6,3 6,3 16 9 18 10 O 1020,5 0,3
28.03.2017 04:00:00 6,1 6,1 18 10 22 12 ONO 1021,1 0,3
28.03.2017 03:00:00 5,9 5,8 21 11 25 14 NO 1021,8 0,3
28.03.2017 02:00:00 5,9 5,8 26 14 25 14 ONO 1021,7 0,8
28.03.2017 01:00:00 5,7 5,5 18 10 22 12 NO 1022,1 0,3
28.03.2017 00:00:00 5,8 5,7 18 10 22 12 ONO 1022,5 0,4
27.03.2017 23:00:00 6,1 6,1 18 10 18 10 NO 1022,8 0,3
27.03.2017 22:00:00 6,1 6,1 21 11 22 12 ONO 1022,9 0,4
27.03.2017 21:00:00 6,3 6,2 21 11 22 12 NO 1023,3 0,5
27.03.2017 20:00:00 6,1 6,1 21 11 22 12 NO 1022,6 0,4
27.03.2017 19:00:00 7,4 7,1 18 10 22 12 NO 1022,5 5
27.03.2017 18:00:00 6,4 5,9 26 14 25 14 ONO 1022,5 3,9
27.03.2017 17:00:00 6,7 6,1 24 13 25 14 NO 1023,0 4,2
27.03.2017 16:00:00 8,3 6,4 22 12 22 12 NO 1023,6 10
27.03.2017 15:00:00 8,7 6,5 21 11 22 12 ONO 1023,6 10
27.03.2017 14:00:00 7,7 6,1 22 12 25 14 ONO 1024,2 7
27.03.2017 13:00:00 6,9 5,6 21 11 22 12 NO 1025,3 7
27.03.2017 12:00:00 6,2 5,4 22 12 25 14 ONO 1025,4 4,6
27.03.2017 11:00:00 6,5 5,9 18 10 22 12 O 1025,7 3,2
27.03.2017 10:00:00 5,9 5,6 22 12 25 14 ONO 1025,7 2,3
27.03.2017 09:00:00 5,8 5,5 26 14 29 16 ONO 1025,8 1,4
27.03.2017 08:00:00 6,1 5,6 28 15 29 16 ONO 1025,4 2,8
27.03.2017 07:00:00 6,5 5,7 26 14 29 16 ONO 1025,3 4,2
27.03.2017 06:00:00 6,7 5,8 21 11 22 12 ONO 1025,3 5
27.03.2017 05:00:00 7,0 6,1 21 11 22 12 ONO 1025,6 5
27.03.2017 04:00:00 6,8 6,2 22 12 29 16 O 1026,1 4,3
27.03.2017 03:00:00 6,7 6,0 24 13 25 14 ONO 1026,4 5
27.03.2017 02:00:00 6,4 6,1 18 10 25 14 ONO 1026,9 3,3
27.03.2017 01:00:00 6,2 5,9 24 13 25 14 O 1026,9 1,7
27.03.2017 00:00:00 6,3 5,4 26 14 29 16 O 1027,0 10
26.03.2017 23:00:00 7,2 5,4 28 15 29 16 NO 1027,1 10
26.03.2017 22:00:00 7,0 4,9 28 15 25 14 NO 1027,0 10
26.03.2017 21:00:00 7,0 4,7 26 14 29 16 NO 1026,6 10
26.03.2017 20:00:00 6,9 4,9 31 17 29 16 NO 1026,3 10
26.03.2017 19:00:00 7,0 5,0 26 14 29 16 NO 1026,4 10
26.03.2017 18:00:00 7,2 5,4 29 16 32 18 NO 1026,7 10
26.03.2017 17:00:00 7,1 5,4 35 19 32 18 NO 1026,9 10
26.03.2017 16:00:00 7,4 6,0 26 14 25 14 NO 1026,9 10
26.03.2017 15:00:00 7,5 6,2 22 12 22 12 NO 1027,5 10
26.03.2017 14:00:00 7,5 5,9 21 11 22 12 NO 1027,9 10
26.03.2017 13:00:00 7,8 5,2 21 11 22 12 NO 1028,0 10
26.03.2017 12:00:00 7,5 5,3 22 12 22 12 NO 1028,0 10
26.03.2017 11:00:00 7,5 5,5 22 12 22 12 NO 1028,2 10
26.03.2017 10:00:00 7,4 5,9 16 9 18 10 NO 1028,1 10
26.03.2017 09:00:00 7,3 6,1 18 10 18 10 NO 1027,9 10
26.03.2017 08:00:00 7,5 6,2 18 10 18 10 NO 1027,9 10
26.03.2017 07:00:00 7,5 5,7 18 10 22 12 NO 1027,4 10
26.03.2017 06:00:00 7,4 5,8 18 10 22 12 NO 1027,5 10
26.03.2017 05:00:00 7,4 5,5 21 11 25 14 NO 1027,5 10
26.03.2017 04:00:00 7,3 5,2 26 14 25 14 NO 1027,9 10
26.03.2017 03:00:00 7,3 5,6 26 14 25 14 NO 1028,5 10
26.03.2017 02:00:00 7,2 5,6 26 14 25 14 NO 1028,4 10
26.03.2017 01:00:00 7,2 5,6 28 15 29 16 NO 1029,2 10
26.03.2017 00:00:00 7,2 5,3 29 16 29 16 NNO 1029,6 10
25.03.2017 23:00:00 7,3 4,7 26 14 29 16 NNO 1029,6 10
25.03.2017 22:00:00 7,3 4,3 28 15 29 16 NNO 1029,9 10
25.03.2017 21:00:00 7,4 3,6 24 13 25 14 NNO 1029,6 10
25.03.2017 20:00:00 7,5 2,1 24 13 25 14 NNO 1029,5 10
25.03.2017 19:00:00 7,6 1,1 22 12 22 12 NNO 1029,6 10
25.03.2017 18:00:00 7,7 0,5 21 11 22 12 NNO 1030,0 10
25.03.2017 17:00:00 7,6 0,5 22 12 22 12 NNO 1030,6 10
25.03.2017 16:00:00 7,4 2,0 24 13 25 14 NNO 1031,6 10
25.03.2017 15:00:00 7,3 1,1 22 12 22 12 NNO 1032,5 10
25.03.2017 14:00:00 7,1 2,6 22 12 22 12 NNO 1033,0 10
25.03.2017 13:00:00 7,0 3,4 21 11 22 12 NNO 1033,7 10
25.03.2017 12:00:00 7,2 2,5 18 10 18 10 NO 1034,1 10
25.03.2017 11:00:00 6,9 2,7 22 12 22 12 NNO 1034,5 10
25.03.2017 10:00:00 6,8 3,7 21 11 22 12 NNO 1034,5 10
25.03.2017 09:00:00 6,7 4,5 22 12 22 12 NNO 1034,3 10
25.03.2017 08:00:00 6,7 5,1 18 10 18 10 NNO 1034,4 10
25.03.2017 07:00:00 7,1 3,7 11 6 14 8 NO 1034,0 10
25.03.2017 06:00:00 7,2 4,0 15 8 18 10 NO 1034,1 10
25.03.2017 05:00:00 7,3 4,0 18 10 18 10 NO 1034,3 10
25.03.2017 04:00:00 7,4 4,4 16 9 22 12 NO 1034,9 10
25.03.2017 03:00:00 7,6 4,3 22 12 22 12 ONO 1035,3 10
25.03.2017 02:00:00 7,4 4,3 26 14 25 14 NO 1035,5 10
25.03.2017 01:00:00 7,5 4,5 26 14 25 14 ONO 1035,3 10
25.03.2017 00:00:00 7,5 4,2 26 14 29 16 ONO 1035,2 10
24.03.2017 23:00:00 7,4 4,3 34 18 36 19 NO 1035,0 10
24.03.2017 22:00:00 7,4 4,0 37 20 36 19 NO 1034,7 10
24.03.2017 21:00:00 7,4 4,6 34 18 32 18 NO 1034,4 10
24.03.2017 20:00:00 7,8 4,6 28 15 25 14 NO 1033,4 10
24.03.2017 19:00:00 7,7 4,5 29 16 36 19 NO 1033,3 10
24.03.2017 18:00:00 7,8 4,0 39 21 40 21 NNO 1032,9 10
24.03.2017 17:00:00 7,8 3,8 34 18 36 19 NO 1032,6 10
24.03.2017 16:00:00 7,7 4,2 31 17 36 19 NO 1032,9 10
24.03.2017 15:00:00 7,6 4,4 31 17 32 18 NO 1033,4 10
24.03.2017 14:00:00 7,8 4,1 28 15 29 16 ONO 1033,2 10
24.03.2017 13:00:00 7,6 3,6 31 17 36 19 ONO 1033,2 10
24.03.2017 12:00:00 7,8 3,7 37 20 36 19 ONO 1032,4 10
24.03.2017 11:00:00 7,5 3,8 39 21 40 21 ONO 1032,4 10
24.03.2017 10:00:00 7,4 3,7 41 22 40 21 ONO 1031,1 10
24.03.2017 09:00:00 7,4 3,9 42 23 43 23 NO 1030,1 10
24.03.2017 08:00:00 7,4 3,6 41 22 43 23 NO 1029,6 10
24.03.2017 07:00:00 7,6 3,8 37 20 40 21 ONO 1029,5 10
24.03.2017 06:00:00 7,5 4,0 34 18 36 19 ONO 1029,1 10
24.03.2017 05:00:00 7,7 4,2 37 20 40 21 ONO 1028,7 10
24.03.2017 04:00:00 7,7 3,9 41 22 43 23 ONO 1027,9 10
24.03.2017 03:00:00 7,9 4,3 44 24 47 25 ONO 1027,7 10
24.03.2017 02:00:00 7,5 4,4 48 26 50 27 NO 1027,0 10
24.03.2017 01:00:00 7,6 4,3 54 29 54 29 NO 1026,1 10
24.03.2017 00:00:00 7,5 4,6 54 29 54 29 NO 1025,5 10
23.03.2017 23:00:00 7,5 4,8 57 31 58 31 NO 1025,2 10
23.03.2017 22:00:00 7,6 4,7 52 28 54 29 NO 1024,8 10
23.03.2017 21:00:00 - - - - - - - - -

tt = temperatuur
td = dauwpunt
ff = windsnelheid
fx = windstoten
dd = windrichting
ppp = luchtdruk
vv = zicht

Weerstations in de omgeving